Location: Burleson Fire Department Station 2
(32.5391°N, 97.3075°W)
Time: 00:09:28
(UTC+00:00)

NOAA 15 - Pass Details

Date: 23 December 2025
Orbit: 793 x 810 km, 98.5° (Epoch: 20 January)

Event Time Altitude Azimuth Distance (km) Brightness Sun altitude
Rises 01:36:14 0° 184° (S) 3,308 8.0 -26.1°
Reaches altitude 10° 01:38:41 10° 192° (SSW) 2,379 7.3 -26.6°
Maximum altitude 01:43:36 40° 261° (W) 1,171 5.9 -27.6°
Drops below altitude 10° 01:48:32 10° 330° (NNW) 2,383 7.2 -28.6°
Sets 01:51:01 0° 338° (NNW) 3,314 7.9 -29.2°
